Wind_Speed
72 73 72 72 71 71 71 71 71 70 70 69 68 67 66 65 64 64 63 64 65 66 66 67 67 68 69 69 70 70 70 70 69 69 69 68 67 68 68 67 66 64
71 72 73 72 72 72 72 73 73 72 72 71 70 69 68 67 67 66 66 65 66 68 69 69 70 71 72 72 72 72 72 72 72 71 71 70 70 70 69 70 69 68
72 72 73 73 73 73 74 74 74 74 73 72 71 70 70 69 69 69 68 68 68 69 71 72 72 73 74 75 75 74 73 73 73 74 73 73 72 72 71 72 72 71
74 74 74 75 75 75 75 74 75 74 74 73 72 71 71 71 70 70 71 71 70 71 72 74 75 76 77 77 77 77 76 75 74 75 75 75 75 75 74 74 74 74
75 76 77 77 76 76 75 75 75 75 75 74 74 73 72 72 72 72 73 73 72 72 73 74 76 78 79 79 79 79 78 77 77 76 76 76 76 76 76 77 76 76
72 73 73 74 74 74 75 75 75 76 76 76 75 75 74 73 73 73 74 74 74 74 74 75 76 77 79 80 81 81 81 80 80 78 76 75 75 76 76 78 78 78
69 68 67 69 70 72 73 73 74 75 76 76 77 77 77 77 76 76 76 76 76 75 76 76 77 78 79 80 81 82 83 83 82 80 79 78 77 76 76 77 78 79
73 72 72 73 73 74 76 77 76 77 77 77 79 80 81 81 81 80 80 80 79 79 78 78 78 80 81 81 82 82 84 84 84 83 82 81 81 80 79 78 78 78
76 77 78 78 77 77 79 81 81 81 80 80 82 83 83 83 84 83 82 82 83 83 82 81 80 82 83 84 84 84 84 84 85 85 84 83 82 82 81 81 79 78
85 85 83 82 81 81 82 84 86 86 86 86 86 86 86 86 86 86 86 86 86 86 86 85 84 84 85 86 87 87 86 85 84 84 85 85 85 83 82 82 81 79
91 90 89 87 86 86 86 87 88 91 93 94 94 93 92 92 92 92 91 90 89 90 91 91 89 87 86 87 88 88 88 87 85 84 84 86 87 86 84 82 80 78
91 92 93 93 92 91 91 91 92 93 95 97 98 98 97 97 96 96 95 94 93 93 93 93 92 90 89 89 89 89 89 89 89 87 87 87 88 89 88 86 83 80
97 98 98 98 98 98 98 98 99 99 99 100 101 102 102 102 102 102 101 100 99 97 96 96 95 94 93 93 93 93 92 92 92 92 91 91 91 91 90 90 88 86
103 103 102 101 101 101 101 101 102 102 103 103 104 104 105 106 106 107 106 106 105 103 101 99 98 97 97 97 97 96 96 96 96 96 96 95 93 92 92 91 90 89
106 106 105 105 104 103 103 102 102 102 103 103 103 104 104 104 105 106 106 107 107 107 105 103 100 99 98 99 99 99 99 99 99 99 99 99 97 95 93 91 91 90
107 107 107 107 107 107 106 106 105 104 104 103 103 103 102 102 102 102 102 103 104 105 106 105 104 101 99 98 98 99 101 102 102 101 101 101 101 99 97 94 92 91
106 107 107 107 107 107 108 108 108 107 107 106 106 105 104 104 103 102 101 101 101 102 103 103 104 103 102 100 99 99 99 101 103 104 104 104 103 102 101 100 97 95
106 106 107 107 107 107 108 108 108 109 109 109 109 109 109 108 107 107 106 105 104 104 104 104 104 104 104 103 103 102 101 101 102 103 105 106 106 105 104 103 103 101
104 104 105 106 106 107 108 108 109 109 109 110 111 112 112 112 112 112 112 111 111 110 109 108 108 108 108 108 108 108 107 107 106 105 104 106 107 107 106 105 104 104
99 100 101 102 103 104 105 106 107 108 108 109 110 111 112 113 114 115 115 115 115 116 115 114 113 112 112 113 114 114 114 113 112 110 108 107 107 108 108 107 106 105
93 95 96 97 98 99 100 101 102 104 105 106 107 108 109 110 111 112 113 114 115 115 116 116 116 115 115 115 115 115 115 115 115 113 112 111 109 108 108 108 108 108
87 89 90 91 91 92 93 94 95 97 98 99 101 102 102 103 104 105 106 107 108 109 110 111 112 112 112 112 112 112 112 112 113 113 113 113 112 111 110 109 109 109
83 84 85 85 86 88 88 89 90 91 91 93 94 95 96 96 97 98 98 99 100 101 102 104 104 104 104 105 105 105 105 105 107 109 110 111 112 112 112 112 111 110
81 83 83 84 84 85 86 87 87 88 88 89 91 92 92 92 93 94 94 94 95 96 97 98 99 98 97 97 98 98 99 99 100 101 104 106 108 109 110 111 112 111
81 82 83 83 83 83 84 85 85 85 86 87 88 89 90 90 90 92 92 92 92 93 94 95 96 96 94 94 94 94 95 96 96 97 98 99 101 103 104 106 109 111
81 81 82 82 82 82 82 82 83 83 84 84 86 87 88 88 89 90 91 90 90 91 92 93 94 94 94 94 94 94 94 95 96 97 96 95 95 96 98 100 102 105
Wind_Direction
278 277 277 277 277 277 276 276 276 276 276 276 275 275 274 272 271 269 268 267 267 266 264 263 261 260 260 260 260 261 262 263 263 264 265 265 266 266 267 267 267 266
276 276 277 277 277 277 276 276 276 276 275 274 274 273 272 270 269 268 266 264 263 263 263 262 261 259 258 258 258 259 259 260 261 262 262 263 263 264 265 266 266 266
273 273 274 274 275 275 275 275 275 275 274 274 273 271 270 269 268 267 266 264 262 261 261 261 260 259 258 257 257 257 258 259 260 261 261 261 262 262 263 264 264 265
269 269 270 271 272 272 272 273 273 273 273 272 271 270 268 267 267 266 265 264 262 260 259 259 259 259 258 257 256 256 257 258 259 260 260 260 260 261 261 262 263 263
266 266 266 267 268 268 269 269 269 270 270 269 269 268 267 266 266 266 266 265 264 262 259 258 257 257 258 257 257 256 256 256 257 258 259 259 260 260 260 261 261 262
270 269 268 267 267 267 268 268 268 267 266 266 265 264 264 264 265 266 266 266 266 265 264 263 261 259 258 257 258 258 257 257 257 257 258 258 259 259 260 260 261 261
269 268 268 268 269 269 267 266 265 264 264 263 262 261 261 260 261 262 263 264 265 266 267 267 266 265 263 260 259 259 258 258 258 258 258 259 259 260 260 260 261 261
263 262 263 265 266 266 264 261 259 257 258 258 258 258 258 258 258 259 260 262 263 265 267 268 268 268 267 266 263 261 260 259 259 259 259 260 260 261 261 261 261 261
266 264 264 264 264 263 262 260 258 256 255 255 255 256 257 257 256 258 260 261 262 264 266 268 269 269 268 267 267 265 263 262 261 261 261 261 261 260 260 260 261 261
270 270 269 269 268 266 265 263 260 259 259 259 259 260 260 260 260 261 262 263 263 263 264 266 268 269 269 268 267 267 266 265 264 264 264 265 264 262 261 260 259 259
270 271 272 272 271 270 269 267 264 263 263 264 265 266 266 266 267 267 267 265 264 264 264 265 266 266 266 267 267 267 266 266 266 265 265 266 266 265 264 262 260 258
272 272 273 273 272 271 270 269 268 267 266 267 267 268 269 269 269 270 270 269 268 266 266 266 265 264 263 263 264 265 265 265 265 265 264 264 264 264 264 263 262 260
275 274 274 274 274 274 273 272 271 270 269 268 268 268 268 268 268 268 269 269 269 269 268 267 266 265 264 263 263 264 264 264 264 263 262 261 261 262 262 262 262 262
276 276 275 275 275 274 274 274 273 273 272 271 270 270 269 269 268 268 268 268 268 268 268 267 266 266 265 264 264 264 264 264 263 262 261 260 259 260 260 261 261 261
276 276 276 275 275 275 274 273 273 273 272 272 272 271 271 271 270 269 269 268 267 267 267 266 266 265 265 264 264 263 262 262 262 262 262 261 260 260 259 259 260 259
277 276 276 276 276 275 275 274 273 273 272 271 271 271 270 270 270 270 269 269 268 267 267 266 265 265 264 263 262 262 261 260 259 259 260 261 261 261 260 259 259 258
277 277 277 277 276 276 276 275 275 274 273 272 271 270 270 269 268 268 268 268 268 267 267 266 266 265 264 263 262 261 261 259 258 257 257 258 259 260 260 260 259 258
277 277 276 276 276 276 276 276 275 275 275 274 273 272 271 270 269 268 268 267 267 267 267 266 266 266 266 265 265 264 263 262 259 257 256 255 256 257 258 259 260 259
277 277 277 277 277 277 277 276 276 276 276 275 275 274 273 273 272 271 270 269 268 267 267 266 266 266 267 267 267 267 267 265 263 260 257 255 254 255 255 256 258 259
278 278 277 277 277 277 277 276 276 276 276 276 276 275 275 274 274 273 272 271 270 270 268 267 266 266 267 267 268 268 268 268 266 264 261 258 256 254 254 254 254 256
280 279 279 278 278 277 277 277 276 276 276 276 275 275 275 274 274 274 273 273 272 271 271 269 268 267 267 267 267 267 268 267 267 265 263 261 258 256 254 253 253 253
282 282 281 281 280 279 279 278 278 277 277 276 276 275 275 275 275 274 274 274 273 273 272 271 270 269 269 268 267 267 267 266 266 265 264 262 260 258 256 255 253 253
284 284 283 283 282 281 281 280 280 279 279 278 278 277 277 276 276 275 275 274 274 274 273 273 271 270 270 269 268 267 266 265 265 264 263 262 260 259 258 257 255 253
285 285 284 284 283 283 282 282 281 281 280 280 279 279 278 277 276 275 275 274 274 273 273 273 272 271 270 269 269 268 267 266 264 263 262 261 260 259 258 257 256 255
286 286 286 285 285 284 284 283 283 282 281 280 279 279 278 277 276 275 275 274 273 273 272 272 272 272 271 270 269 268 267 266 265 263 262 261 260 259 257 256 255 255
288 288 288 287 287 286 285 285 284 283 282 281 280 279 278 277 277 276 275 274 274 273 272 272 272 271 271 270 269 268 267 266 265 264 263 261 260 258 257 256 255 254
Height
5684 5684 5683 5683 5683 5682 5682 5681 5681 5681 5681 5681 5681 5680 5681 5680 5681 5682 5682 5682 5681 5681 5681 5681 5682 5682 5682 5681 5681 5681 5681 5681 5681 5681 5681 5682 5682 5681 5681 5682 5682 5683
5676 5675 5674 5673 5673 5672 5671 5671 5670 5670 5670 5670 5670 5670 5670 5670 5670 5671 5671 5672 5672 5671 5671 5671 5671 5672 5672 5671 5671 5671 5672 5672 5672 5672 5672 5673 5673 5673 5673 5673 5673 5673
5667 5666 5665 5664 5663 5662 5661 5661 5660 5660 5659 5659 5659 5659 5659 5659 5659 5660 5660 5660 5661 5661 5660 5661 5661 5661 5661 5661 5661 5661 5662 5662 5662 5662 5663 5664 5663 5664 5664 5663 5664 5665
5658 5657 5656 5655 5654 5653 5652 5651 5650 5649 5649 5648 5648 5648 5648 5648 5648 5648 5648 5649 5649 5649 5650 5650 5650 5650 5650 5651 5651 5651 5651 5651 5652 5652 5653 5654 5654 5654 5655 5654 5655 5655
5648 5647 5647 5646 5645 5644 5643 5642 5641 5640 5639 5638 5638 5638 5637 5637 5637 5637 5636 5637 5637 5637 5638 5638 5639 5639 5639 5639 5640 5640 5641 5640 5641 5641 5642 5644 5643 5644 5645 5644 5645 5646
5636 5635 5634 5634 5634 5633 5633 5632 5631 5630 5629 5628 5627 5627 5627 5626 5626 5625 5625 5625 5625 5625 5625 5626 5627 5627 5628 5628 5629 5629 5629 5629 5630 5630 5632 5633 5633 5634 5635 5634 5636 5637
5624 5623 5622 5622 5622 5622 5621 5621 5620 5619 5618 5617 5616 5616 5616 5615 5615 5615 5614 5614 5613 5613 5613 5613 5614 5614 5615 5616 5617 5617 5617 5617 5618 5618 5620 5621 5622 5623 5624 5624 5625 5627
5614 5613 5612 5611 5611 5610 5610 5609 5608 5608 5607 5606 5605 5604 5604 5604 5603 5603 5603 5603 5602 5602 5602 5602 5602 5602 5603 5604 5605 5605 5605 5605 5606 5607 5608 5610 5610 5612 5612 5612 5614 5616
5601 5600 5599 5599 5599 5598 5598 5597 5596 5595 5595 5594 5594 5593 5592 5591 5591 5591 5591 5591 5591 5591 5590 5590 5589 5590 5590 5591 5591 5592 5593 5593 5594 5595 5596 5597 5599 5600 5601 5601 5603 5605
5587 5587 5586 5586 5586 5585 5585 5585 5584 5583 5581 5581 5581 5580 5580 5579 5579 5580 5580 5580 5580 5580 5579 5579 5578 5578 5578 5577 5578 5578 5579 5581 5581 5582 5583 5584 5585 5587 5589 5590 5591 5593
5574 5573 5573 5572 5572 5572 5572 5572 5571 5570 5569 5567 5567 5567 5567 5566 5566 5567 5568 5569 5569 5568 5568 5567 5567 5567 5567 5566 5565 5565 5566 5567 5568 5570 5570 5571 5573 5574 5576 5578 5580 5582
5562 5561 5560 5559 5559 5559 5559 5559 5558 5558 5557 5555 5554 5553 5553 5553 5553 5554 5554 5555 5556 5556 5555 5555 5555 5555 5555 5554 5553 5553 5553 5554 5555 5556 5557 5559 5561 5562 5563 5565 5567 5569
5549 5548 5547 5546 5546 5545 5544 5544 5543 5543 5543 5542 5541 5540 5539 5539 5539 5539 5540 5540 5541 5541 5542 5542 5542 5542 5542 5542 5541 5541 5541 5542 5543 5544 5545 5547 5548 5550 5551 5553 5554 5556
5533 5532 5532 5531 5531 5530 5529 5528 5527 5526 5526 5526 5526 5525 5525 5524 5523 5524 5525 5525 5525 5526 5527 5527 5528 5529 5528 5528 5528 5528 5528 5529 5530 5531 5533 5535 5536 5538 5539 5540 5542 5544
5516 5515 5515 5514 5514 5514 5513 5513 5512 5511 5510 5510 5509 5508 5508 5508 5507 5507 5508 5509 5509 5509 5510 5511 5512 5514 5514 5513 5513 5514 5514 5515 5517 5518 5519 5521 5523 5525 5526 5528 5530 5531
5501 5499 5498 5497 5496 5495 5495 5494 5494 5494 5494 5494 5493 5492 5492 5491 5491 5491 5492 5492 5492 5493 5493 5494 5495 5497 5498 5497 5497 5497 5498 5499 5502 5504 5505 5506 5508 5510 5513 5514 5516 5518
5486 5484 5483 5481 5480 5478 5477 5476 5475 5475 5475 5475 5475 5475 5475 5475 5475 5476 5476 5475 5475 5476 5476 5477 5478 5480 5480 5480 5481 5481 5481 5482 5484 5487 5489 5491 5493 5495 5497 5499 5501 5503
5472 5470 5468 5466 5464 5462 5460 5459 5458 5457 5457 5455 5455 5456 5456 5456 5457 5458 5458 5459 5458 5459 5460 5461 5461 5463 5463 5462 5463 5464 5464 5464 5466 5469 5472 5474 5477 5480 5482 5484 5485 5487
5457 5455 5453 5452 5450 5447 5445 5443 5442 5441 5440 5438 5437 5436 5436 5437 5438 5438 5438 5439 5439 5440 5442 5444 5445 5447 5447 5445 5444 5445 5446 5446 5447 5450 5454 5457 5460 5463 5466 5469 5470 5471
5443 5441 5439 5438 5436 5433 5431 5429 5427 5425 5424 5422 5420 5418 5418 5417 5417 5417 5418 5419 5419 5419 5421 5424 5428 5431 5431 5428 5427 5427 5427 5426 5427 5430 5435 5438 5442 5445 5448 5452 5455 5456
5429 5426 5425 5423 5422 5419 5416 5415 5412 5409 5408 5406 5403 5401 5401 5400 5399 5398 5398 5398 5399 5398 5398 5401 5407 5411 5411 5410 5410 5409 5408 5406 5406 5409 5414 5418 5422 5427 5430 5433 5437 5439
5415 5413 5411 5409 5407 5404 5402 5400 5397 5394 5392 5389 5386 5384 5384 5383 5382 5381 5380 5379 5380 5379 5378 5379 5385 5390 5390 5389 5390 5391 5390 5388 5387 5389 5392 5396 5401 5407 5410 5414 5418 5420
5403 5400 5397 5395 5392 5389 5387 5385 5382 5379 5378 5374 5370 5368 5368 5368 5366 5364 5363 5363 5362 5362 5360 5359 5363 5369 5370 5368 5369 5370 5370 5369 5368 5369 5371 5374 5380 5386 5390 5393 5398 5402
5391 5387 5384 5381 5379 5375 5372 5370 5368 5365 5363 5360 5355 5353 5353 5352 5350 5347 5347 5347 5345 5345 5344 5341 5342 5349 5352 5350 5349 5350 5350 5349 5349 5349 5350 5354 5359 5365 5370 5373 5377 5382
5378 5374 5371 5367 5365 5362 5359 5356 5353 5351 5348 5345 5341 5338 5336 5336 5334 5331 5330 5332 5330 5328 5328 5326 5325 5329 5333 5332 5331 5332 5331 5329 5329 5329 5330 5335 5341 5345 5349 5353 5356 5361
5366 5361 5358 5354 5351 5348 5345 5343 5339 5335 5333 5330 5326 5323 5320 5319 5319 5316 5314 5315 5316 5314 5312 5312 5311 5312 5315 5314 5313 5313 5314 5311 5308 5308 5311 5317 5322 5325 5328 5332 5337 5342